Regional Weather Roundup
Issued by NWS New Orleans/Baton Rouge, LA

Home | Current Version | Previous Version | Text Only | Print | Product List | Glossary On
Versions: 1 2 3 4 5 6 7 8 9 10 11 12 13 14 15 16 17 18 19 20 21 22 23 24 25 26 27 28 29 30 31 32 33 34 35 36 37 38 39 40 41 42 43 44 45 46 47 48 49 50
416
ASUS44 KLIX 302311
RWRLIX
NEW ORLEANS REGIONAL WEATHER ROUNDUP
NATIONAL WEATHER SERVICE NEW ORLEANS LA
600 PM CDT MON MAY 30 2016

NOTE: "FAIR" INDICATES FEW OR NO CLOUDS BELOW 12,000 FEET WITH NO
      SIGNIFICANT WEATHER AND/OR OBSTRUCTIONS TO VISIBILITY.
      SKY/WX - SKY CONDITION AND SIGNIFICANT WEATHER.
      TMP - AIR TEMPERATURE.     DP    - DEWPOINT TEMPERATURE.
      RH  - RELATIVE HUMIDITY.   PRES  - PRESSURE.
      HI  - HEAT INDEX.          WCI   - WIND CHILL INDEX.

*  THESE STATIONS ARE NOT NWS OR FAA STATIONS AND ARE NOT UNDER
   NWS QUALITY CONTROL.

LAZ038-040-048-061>063-065>067-069-310000-
SOUTHEAST LOUISIANA

CITY           SKY/WX    TMP DP  RH WIND       PRES   REMARKS
N.O. AUDUBON   NOT AVBL
N.O. INTL ARPT PTSUNNY   79  70  74 CALM      29.94R
N.O. LAKEFRONT MOSUNNY   84  69  60 SW8       29.94S
N.O. DOWNTOWN*   N/A     81  72  74 VRB3      29.94S
RESERVE*         N/A     80  73  81 CALM      29.93F
SLIDELL        MOSUNNY   86  72  62 SW9       29.92F
BATON ROUGE    PTSUNNY   86  68  54 S13       29.91F
BOOTHVILLE     SUNNY     83  69  62 S9        29.95F
BELLE CHASSE   CLOUDY    81  74  79 SW6       29.94S
BOGALUSA*        N/A     85  68  56 SW3       29.95S
GALLIANO*      CLOUDY    84  69  59 S7        29.95S
NEW ROADS*       N/A     83  70  63 S7        29.92S
GONZALES*        N/A     83  70  63 E6        29.92F
HAMMOND*       SUNNY     84  63  48 SW13G20   29.92F
HOUMA*         NOT AVBL
PORT FOURCHON* CLEAR     82  70  65 S8        29.95F

$$

MSZ070-080>082-310000-
SOUTHERN MISSISSIPPI

CITY           SKY/WX    TMP DP  RH WIND       PRES   REMARKS
MCCOMB         CLOUDY    84  68  58 SE12      29.92F
GULFPORT       LGT RAIN  78  71  79 SE29G36   29.95S
BILOXI         CLOUDY    80  67  64 SW2       29.93F THUNDER
PASCAGOULA     CLOUDY    75  69  81 NW3       29.94F
STENNIS ARPT*  SUNNY     82  68  61 S6        29.93F

$$

COASTAL OBSERVATIONS
LAKE AND NEARSHORE STATIONS

STATION/POSITION TIME  TEMP    WIND        PRES    WAVE
                       AIR SEA DIR/SP/G            HT/PER
                 (UTC) (F)     (DEG/KT/KT) (MB)    (FT/S)
PASCAGOULA       2200   84                   N/A
WAVELAND YACHT   2200   85 82                N/A
GRAND ISLE       2200   83 83                N/A
SOUTHWEST PASS   2200          210/  8/  9   N/A
NEW CANAL        2200   83 83                N/A
SHELL BEACH      2200   84 85                N/A

OFFSHORE STATIONS

STATION/POSITION TIME  TEMP    WIND        PRES    WAVE
                       AIR SEA DIR/SP/G            HT/PER
                 (UTC) (F)     (DEG/KT/KT) (MB)    (FT/S)
64 S DAUPHIN ISL 2200   81 81  240/  8/ 10 1014.4

$$





USA.gov is the U.S. government's official web portal to all federal, state and local government web resources and services.